Weather in Kizner

Russia / Udmurt Republic     56°18′46″N   51°30′37″E
temp.,
°C
wind,
m/s
gust,
m/s
humid.,
%
clouds,
%
prec.,
mm/h
press.,
hPa
HPBL,
m
26 october, tue
tue2601:00−3w388013 0.0 1024268
04:00−3wsw288071 0.0 1024271
07:00−1sw41270100 0.0 1023605
10:000wsw61370100 0.2 1022765
13:00+2wsw51369100 1.1 1020788
16:00+3wsw6126170 1.2 1019853
19:00+2wsw5126869 0.0 1020646
22:00+1sw4107596 0.0 1019432
27 october, wed
wed2701:000sw31082100 0.0 1019321
04:000sw41083100 0.0 1018353
07:000sw4108399 0.0 1017357
10:00+2sw4107377 0.0 1017475
13:00+5sw5962100 0.0 1015764
16:00+4sw51165100 0.0 1014657
19:00+3sw51367100 0.0 1013554
22:00+4sw51466100 0.0 1011625
28 october, thu
thu2801:00+3sw61464100 0.0 1009658
04:00+2sw61374100 0.1 1008813
07:00+2wsw61297100 2.4 1007810
10:00+4wsw61290100 2.6 1007862
13:00+6wsw6117996 0.0 10081050
16:00+5wsw51080100 0.1 1008964
19:00+5wsw4983100 0.1 1009678
22:00+4w4887100 0.1 1009740
29 october, fri
fri2901:00−1n51193100 1.3 1012547
04:00−1n598188 1.3 1014626
07:00−5n5118392 0.0 1018686
10:00−4n5970100 0.0 1022889
13:00−2n5859100 0.0 10251096
16:00−2n48645 0.0 1028964
19:00−4n25773 0.0 1030175
22:00−5nne117799 0.0 103220
30 october, sat
sat3001:00−4s2373100 0.0 1032128
04:00−4sw3970100 0.0 1030363
07:00−3sw51478100 0.1 1028533
10:00−1sw51358100 0.9 1026802
13:00+1wsw51263100 0.1 1025613
16:00+2w41177100 0.1 1024469
19:00+2w3988100 0.0 1025317
22:00+2wsw2896100 0.0 1026226